STARLINK-34931 (65398 NORAD) Tracking and Keplerian Element Data

This shows tracking and keplerian element data for the satellite.

Feedback or suggestion? Click here.




ElementValue
Catalog65398
NameSTARLINK-34931
Epoch Orbit1829
Epoch Day354.11962844
Epoch Year2025
RAAN223.0562
Inclination97.6032
Eccentricity0.000202
Argument of Perigee84.9591
Mean Anonmoly275.1867
Mean Motion15.05652539
Decay Rate3.974E-05
L11 65398U 25191V 25354.11962844 .00003974 00000+0 27942-3 0 9992
L22 65398 97.6032 223.0562 0002020 84.9591 275.1867 15.05652539 18297



Live tracking and technical data element details for STARLINK-34931 (NORAD 65398). STARLINK-34931 can be tracked NOW for your location showing map with azimuth and elevation plus other details from your city location.







IsCatalogInMostPopularTable: catalog: 65398, numindb: 7
Update: records affected: 1



GetName: 65398 STARLINK-34931

Hit Count: updated at: Mon, 20 Apr 2026 11:21:59 GMT